Time,TemperatureF,DewpointF,PressureIn,WindDirection,WindDirectionDegrees,WindSpeedMPH,WindSpeedGustMPH,Humidity,HourlyPrecipIn,Conditions,Clouds,dailyrainin,SolarRadiationWatts/m^2,SoftwareType,DateUTC
2013-04-06 01:00:00,39.9,35.2,29.76,North,-999,0.0,0.0,83,0.00,,,-99.99,0,WeatherLink 5.7,2013-04-06 07:00:00,
2013-04-06 01:05:00,39.8,35.1,29.76,North,-999,0.0,0.0,83,0.00,,,-99.99,0,WeatherLink 5.7,2013-04-06 07:05:00,
2013-04-06 01:10:00,39.5,35.1,29.76,North,-999,0.0,0.0,84,0.00,,,-99.99,0,WeatherLink 5.7,2013-04-06 07:10:00,
2013-04-06 01:15:00,39.2,34.8,29.78,North,-999,0.0,0.0,84,0.00,,,-99.99,0,WeatherLink 5.7,2013-04-06 07:15:00,
2013-04-06 01:20:00,39.0,34.6,29.78,North,-999,0.0,0.0,84,0.00,,,-99.99,0,WeatherLink 5.7,2013-04-06 07:20:00,
2013-04-06 01:25:00,39.0,34.9,29.78,North,-999,0.0,0.0,85,0.00,,,-99.99,0,WeatherLink 5.7,2013-04-06 07:25:00,
2013-04-06 01:30:00,38.9,34.8,29.78,North,-999,0.0,0.0,85,0.00,,,-99.99,0,WeatherLink 5.7,2013-04-06 07:30:00,
2013-04-06 01:35:00,38.8,34.7,29.78,North,-999,0.0,0.0,85,0.00,,,-99.99,0,WeatherLink 5.7,2013-04-06 07:35:00,
2013-04-06 01:40:00,38.9,34.8,29.78,North,-999,0.0,0.0,85,0.00,,,-99.99,0,WeatherLink 5.7,2013-04-06 07:40:00,
2013-04-06 01:45:00,38.9,35.1,29.78,North,-999,0.0,0.0,86,0.00,,,-99.99,0,WeatherLink 5.7,2013-04-06 07:45:00,
2013-04-06 01:50:00,38.9,35.1,29.78,North,-999,0.0,0.0,86,0.00,,,-99.99,0,WeatherLink 5.7,2013-04-06 07:50:00,
2013-04-06 01:55:00,39.0,35.2,29.78,North,-999,0.0,0.0,86,0.00,,,-99.99,0,WeatherLink 5.7,2013-04-06 07:55:00,
2013-04-06 02:00:00,39.0,35.2,29.79,North,-999,0.0,0.0,86,0.00,,,-99.99,0,WeatherLink 5.7,2013-04-06 08:00:00,
2013-04-06 02:05:00,38.9,35.1,29.79,North,-999,0.0,0.0,86,0.00,,,-99.99,0,WeatherLink 5.7,2013-04-06 08:05:00,
2013-04-06 02:10:00,38.9,35.1,29.79,North,-999,0.0,0.0,86,0.00,,,-99.99,0,WeatherLink 5.7,2013-04-06 08:10:00,
2013-04-06 02:15:00,38.8,35.0,29.78,North,-999,0.0,0.0,86,0.00,,,-99.99,0,WeatherLink 5.7,2013-04-06 08:15:00,
2013-04-06 02:20:00,38.6,34.8,29.78,North,-999,0.0,0.0,86,0.00,,,-99.99,0,WeatherLink 5.7,2013-04-06 08:20:00,
2013-04-06 02:25:00,38.6,34.8,29.78,North,-999,0.0,0.0,86,0.00,,,-99.99,0,WeatherLink 5.7,2013-04-06 08:25:00,
2013-04-06 02:30:00,38.5,34.7,29.79,North,-999,0.0,0.0,86,0.00,,,-99.99,0,WeatherLink 5.7,2013-04-06 08:30:00,
2013-04-06 02:35:00,38.3,34.5,29.79,North,-999,0.0,0.0,86,0.00,,,-99.99,0,WeatherLink 5.7,2013-04-06 08:35:00,
2013-04-06 02:40:00,38.2,34.4,29.79,North,-999,0.0,0.0,86,0.00,,,-99.99,0,WeatherLink 5.7,2013-04-06 08:40:00,
2013-04-06 02:45:00,38.2,34.4,29.80,North,-999,0.0,0.0,86,0.00,,,-99.99,0,WeatherLink 5.7,2013-04-06 08:45:00,
2013-04-06 02:50:00,38.2,34.4,29.80,North,-999,0.0,0.0,86,0.00,,,-99.99,0,WeatherLink 5.7,2013-04-06 08:50:00,
2013-04-06 02:55:00,38.2,34.4,29.80,North,-999,0.0,0.0,86,0.00,,,-99.99,0,WeatherLink 5.7,2013-04-06 08:55:00,
2013-04-06 03:00:00,38.2,34.4,29.80,North,-999,0.0,0.0,86,0.00,,,-99.99,0,WeatherLink 5.7,2013-04-06 09:00:00,
2013-04-06 03:05:00,38.2,34.4,29.80,North,-999,0.0,0.0,86,0.00,,,-99.99,0,WeatherLink 5.7,2013-04-06 09:05:00,
2013-04-06 03:10:00,38.2,34.4,29.80,North,-999,0.0,0.0,86,0.00,,,-99.99,0,WeatherLink 5.7,2013-04-06 09:10:00,
2013-04-06 03:15:00,38.3,34.5,29.80,North,-999,0.0,0.0,86,0.00,,,-99.99,0,WeatherLink 5.7,2013-04-06 09:15:00,
2013-04-06 03:20:00,38.3,34.8,29.80,North,-999,0.0,0.0,87,0.00,,,-99.99,0,WeatherLink 5.7,2013-04-06 09:20:00,
2013-04-06 03:25:00,38.6,35.1,29.80,North,-999,0.0,0.0,87,0.00,,,-99.99,0,WeatherLink 5.7,2013-04-06 09:25:00,
2013-04-06 03:30:00,38.9,35.4,29.80,North,-999,0.0,0.0,87,0.00,,,-99.99,0,WeatherLink 5.7,2013-04-06 09:30:00,
2013-04-06 03:35:00,38.9,35.4,29.80,North,-999,0.0,0.0,87,0.00,,,-99.99,0,WeatherLink 5.7,2013-04-06 09:35:00,
2013-04-06 03:40:00,38.8,35.0,29.80,North,-999,0.0,0.0,86,0.00,,,-99.99,0,WeatherLink 5.7,2013-04-06 09:40:00,
2013-04-06 03:45:00,38.6,35.1,29.80,North,-999,0.0,0.0,87,0.00,,,-99.99,0,WeatherLink 5.7,2013-04-06 09:45:00,
2013-04-06 03:50:00,38.5,35.0,29.80,North,-999,0.0,0.0,87,0.00,,,-99.99,0,WeatherLink 5.7,2013-04-06 09:50:00,
2013-04-06 03:55:00,38.3,34.8,29.80,North,-999,0.0,0.0,87,0.00,,,-99.99,0,WeatherLink 5.7,2013-04-06 09:55:00,
2013-04-06 04:00:00,38.2,34.7,29.80,North,-999,0.0,0.0,87,0.00,,,-99.99,0,WeatherLink 5.7,2013-04-06 10:00:00,
2013-04-06 04:05:00,38.0,34.5,29.80,North,-999,0.0,0.0,87,0.00,,,-99.99,0,WeatherLink 5.7,2013-04-06 10:05:00,
2013-04-06 04:10:00,37.9,34.4,29.80,North,-999,0.0,0.0,87,0.00,,,-99.99,0,WeatherLink 5.7,2013-04-06 10:10:00,
2013-04-06 04:15:00,37.7,34.2,29.82,North,-999,0.0,0.0,87,0.00,,,-99.99,0,WeatherLink 5.7,2013-04-06 10:15:00,
2013-04-06 04:20:00,37.6,34.1,29.82,North,-999,0.0,0.0,87,0.00,,,-99.99,0,WeatherLink 5.7,2013-04-06 10:20:00,
2013-04-06 04:25:00,37.3,33.8,29.82,North,-999,0.0,0.0,87,0.00,,,-99.99,0,WeatherLink 5.7,2013-04-06 10:25:00,
2013-04-06 04:30:00,37.2,33.7,29.81,North,-999,0.0,0.0,87,0.00,,,-99.99,0,WeatherLink 5.7,2013-04-06 10:30:00,
2013-04-06 04:35:00,37.0,33.5,29.81,North,-999,0.0,0.0,87,0.00,,,-99.99,0,WeatherLink 5.7,2013-04-06 10:35:00,
2013-04-06 04:40:00,36.9,33.4,29.81,North,-999,0.0,0.0,87,0.00,,,-99.99,0,WeatherLink 5.7,2013-04-06 10:40:00,
2013-04-06 04:45:00,36.7,33.2,29.81,North,-999,0.0,0.0,87,0.00,,,-99.99,0,WeatherLink 5.7,2013-04-06 10:45:00,
2013-04-06 04:50:00,36.6,33.1,29.81,North,-999,0.0,0.0,87,0.00,,,-99.99,0,WeatherLink 5.7,2013-04-06 10:50:00,
2013-04-06 04:55:00,36.5,33.0,29.81,North,-999,0.0,0.0,87,0.00,,,-99.99,0,WeatherLink 5.7,2013-04-06 10:55:00,
2013-04-06 05:00:00,36.2,32.7,29.82,North,-999,0.0,0.0,87,0.00,,,-99.99,0,WeatherLink 5.7,2013-04-06 11:00:00,
2013-04-06 05:05:00,36.2,33.0,29.82,East,90,0.0,1.0,88,0.00,,,-99.99,0,WeatherLink 5.7,2013-04-06 11:05:00,
2013-04-06 05:10:00,36.3,33.1,29.82,East,90,0.0,1.0,88,0.00,,,-99.99,0,WeatherLink 5.7,2013-04-06 11:10:00,
2013-04-06 05:15:00,36.0,32.8,29.81,East,90,1.0,3.0,88,0.00,,,-99.99,0,WeatherLink 5.7,2013-04-06 11:15:00,
2013-04-06 05:20:00,36.0,32.8,29.81,North,-999,0.0,0.0,88,0.00,,,-99.99,0,WeatherLink 5.7,2013-04-06 11:20:00,
2013-04-06 05:25:00,35.9,32.7,29.81,North,-999,0.0,0.0,88,0.00,,,-99.99,0,WeatherLink 5.7,2013-04-06 11:25:00,
2013-04-06 05:30:00,36.2,33.3,29.81,East,90,0.0,1.0,89,0.00,,,-99.99,0,WeatherLink 5.7,2013-04-06 11:30:00,
2013-04-06 05:35:00,35.9,32.7,29.81,North,-999,0.0,0.0,88,0.00,,,-99.99,0,WeatherLink 5.7,2013-04-06 11:35:00,
2013-04-06 05:40:00,35.6,32.4,29.81,North,-999,0.0,0.0,88,0.00,,,-99.99,0,WeatherLink 5.7,2013-04-06 11:40:00,
2013-04-06 05:45:00,35.5,32.3,29.81,North,-999,0.0,0.0,88,0.00,,,-99.99,0,WeatherLink 5.7,2013-04-06 11:45:00,
2013-04-06 05:50:00,35.3,32.4,29.81,North,-999,0.0,0.0,89,0.00,,,-99.99,0,WeatherLink 5.7,2013-04-06 11:50:00,
2013-04-06 05:55:00,35.6,32.7,29.81,North,-999,0.0,0.0,89,0.00,,,-99.99,0,WeatherLink 5.7,2013-04-06 11:55:00,
2013-04-06 06:00:00,35.7,32.8,29.81,North,-999,0.0,0.0,89,0.00,,,-99.99,0,WeatherLink 5.7,2013-04-06 12:00:00,
2013-04-06 06:05:00,35.7,32.8,29.81,East,90,1.0,3.0,89,0.00,,,-99.99,0,WeatherLink 5.7,2013-04-06 12:05:00,
2013-04-06 06:10:00,36.0,33.1,29.81,East,90,2.0,4.0,89,0.00,,,-99.99,0,WeatherLink 5.7,2013-04-06 12:10:00,
2013-04-06 06:15:00,36.0,33.1,29.82,East,90,1.0,3.0,89,0.00,,,-99.99,0,WeatherLink 5.7,2013-04-06 12:15:00,
2013-04-06 06:20:00,35.9,32.7,29.82,North,-999,0.0,0.0,88,0.00,,,-99.99,0,WeatherLink 5.7,2013-04-06 12:20:00,
2013-04-06 06:25:00,35.9,32.7,29.82,North,-999,0.0,0.0,88,0.00,,,-99.99,0,WeatherLink 5.7,2013-04-06 12:25:00,
2013-04-06 06:30:00,35.6,32.4,29.82,East,90,1.0,3.0,88,0.00,,,-99.99,0,WeatherLink 5.7,2013-04-06 12:30:00,
2013-04-06 06:35:00,35.6,32.4,29.82,East,90,0.0,1.0,88,0.00,,,-99.99,0,WeatherLink 5.7,2013-04-06 12:35:00,
2013-04-06 06:40:00,35.6,32.4,29.82,North,-999,0.0,0.0,88,0.00,,,-99.99,0,WeatherLink 5.7,2013-04-06 12:40:00,
2013-04-06 06:45:00,35.5,32.3,29.83,North,-999,0.0,0.0,88,0.00,,,-99.99,0,WeatherLink 5.7,2013-04-06 12:45:00,
2013-04-06 06:50:00,35.3,32.1,29.83,North,-999,0.0,0.0,88,0.00,,,-99.99,0,WeatherLink 5.7,2013-04-06 12:50:00,
2013-04-06 06:55:00,35.3,32.1,29.83,North,-999,0.0,0.0,88,0.00,,,-99.99,0,WeatherLink 5.7,2013-04-06 12:55:00,
2013-04-06 07:00:00,35.2,32.0,29.82,North,-999,0.0,0.0,88,0.00,,,-99.99,0,WeatherLink 5.7,2013-04-06 13:00:00,
2013-04-06 07:05:00,34.9,31.7,29.82,North,-999,0.0,0.0,88,0.00,,,-99.99,0,WeatherLink 5.7,2013-04-06 13:05:00,
2013-04-06 07:10:00,34.7,31.5,29.82,North,-999,0.0,0.0,88,0.00,,,-99.99,0,WeatherLink 5.7,2013-04-06 13:10:00,
2013-04-06 07:15:00,34.6,31.4,29.93,North,-999,0.0,0.0,88,0.00,,,-99.99,0,WeatherLink 5.7,2013-04-06 13:15:00,
2013-04-06 07:20:00,34.6,31.4,29.93,North,-999,0.0,0.0,88,0.00,,,-99.99,0,WeatherLink 5.7,2013-04-06 13:20:00,
2013-04-06 07:25:00,34.9,32.0,29.93,North,-999,0.0,0.0,89,0.00,,,-99.99,0,WeatherLink 5.7,2013-04-06 13:25:00,
2013-04-06 07:30:00,34.9,32.0,29.93,East,90,0.0,2.0,89,0.00,,,-99.99,0,WeatherLink 5.7,2013-04-06 13:30:00,
2013-04-06 07:35:00,34.9,32.0,29.93,North,-999,0.0,0.0,89,0.00,,,-99.99,0,WeatherLink 5.7,2013-04-06 13:35:00,
2013-04-06 07:40:00,35.0,32.1,29.93,East,90,0.0,3.0,89,0.00,,,-99.99,0,WeatherLink 5.7,2013-04-06 13:40:00,
2013-04-06 07:45:00,35.0,32.1,29.94,North,-999,0.0,0.0,89,0.00,,,-99.99,0,WeatherLink 5.7,2013-04-06 13:45:00,
2013-04-06 07:50:00,35.0,32.1,29.94,North,-999,0.0,0.0,89,0.00,,,-99.99,0,WeatherLink 5.7,2013-04-06 13:50:00,
2013-04-06 07:55:00,35.0,32.1,29.94,North,-999,0.0,0.0,89,0.00,,,-99.99,6,WeatherLink 5.7,2013-04-06 13:55:00,
2013-04-06 08:00:00,35.2,32.3,29.94,East,90,0.0,1.0,89,0.00,,,-99.99,8,WeatherLink 5.7,2013-04-06 14:00:00,
2013-04-06 08:05:00,35.2,32.3,29.94,North,-999,0.0,0.0,89,0.00,,,-99.99,11,WeatherLink 5.7,2013-04-06 14:05:00,
2013-04-06 08:10:00,35.2,32.3,29.94,North,-999,0.0,0.0,89,0.00,,,-99.99,18,WeatherLink 5.7,2013-04-06 14:10:00,
2013-04-06 08:15:00,35.2,32.3,29.95,North,-999,0.0,0.0,89,0.00,,,-99.99,20,WeatherLink 5.7,2013-04-06 14:15:00,
2013-04-06 08:20:00,35.3,32.4,29.95,North,-999,0.0,0.0,89,0.00,,,-99.99,21,WeatherLink 5.7,2013-04-06 14:20:00,
2013-04-06 08:25:00,35.3,32.4,29.95,North,-999,0.0,0.0,89,0.00,,,-99.99,24,WeatherLink 5.7,2013-04-06 14:25:00,
2013-04-06 08:30:00,35.6,32.7,29.94,North,-999,0.0,0.0,89,0.00,,,-99.99,23,WeatherLink 5.7,2013-04-06 14:30:00,
2013-04-06 08:35:00,35.7,32.8,29.94,North,-999,0.0,0.0,89,0.00,,,-99.99,27,WeatherLink 5.7,2013-04-06 14:35:00,
2013-04-06 08:40:00,35.7,32.8,29.94,North,-999,0.0,0.0,89,0.00,,,-99.99,33,WeatherLink 5.7,2013-04-06 14:40:00,
2013-04-06 08:45:00,35.9,33.0,29.94,North,-999,0.0,0.0,89,0.00,,,-99.99,43,WeatherLink 5.7,2013-04-06 14:45:00,
2013-04-06 08:50:00,35.9,33.0,29.94,North,-999,0.0,0.0,89,0.00,,,-99.99,52,WeatherLink 5.7,2013-04-06 14:50:00,
2013-04-06 08:55:00,36.0,33.1,29.94,North,-999,0.0,0.0,89,0.00,,,-99.99,51,WeatherLink 5.7,2013-04-06 14:55:00,
2013-04-06 09:00:00,36.3,33.4,29.94,East,90,0.0,2.0,89,0.00,,,-99.99,53,WeatherLink 5.7,2013-04-06 15:00:00,
2013-04-06 09:05:00,36.7,33.8,29.94,North,-999,0.0,0.0,89,0.00,,,-99.99,71,WeatherLink 5.7,2013-04-06 15:05:00,
2013-04-06 09:10:00,37.0,34.1,29.94,North,-999,0.0,0.0,89,0.00,,,-99.99,35,WeatherLink 5.7,2013-04-06 15:10:00,
2013-04-06 09:15:00,37.2,34.0,29.95,North,-999,0.0,0.0,88,0.00,,,-99.99,34,WeatherLink 5.7,2013-04-06 15:15:00,
2013-04-06 09:20:00,37.2,34.0,29.95,North,-999,0.0,0.0,88,0.00,,,-99.99,44,WeatherLink 5.7,2013-04-06 15:20:00,
2013-04-06 09:25:00,37.3,34.1,29.95,North,-999,0.0,0.0,88,0.00,,,-99.99,111,WeatherLink 5.7,2013-04-06 15:25:00,
2013-04-06 09:30:00,37.9,34.9,29.94,North,-999,0.0,0.0,89,0.00,,,-99.99,197,WeatherLink 5.7,2013-04-06 15:30:00,
2013-04-06 09:35:00,38.3,35.3,29.94,East,90,0.0,2.0,89,0.00,,,-99.99,169,WeatherLink 5.7,2013-04-06 15:35:00,
2013-04-06 09:40:00,38.9,35.6,29.94,East,90,0.0,3.0,88,0.00,,,-99.99,112,WeatherLink 5.7,2013-04-06 15:40:00,
2013-04-06 09:45:00,39.0,35.7,29.94,East,90,0.0,1.0,88,0.00,,,-99.99,70,WeatherLink 5.7,2013-04-06 15:45:00,
2013-04-06 09:50:00,39.2,35.7,29.94,East,90,0.0,2.0,87,0.00,,,-99.99,76,WeatherLink 5.7,2013-04-06 15:50:00,
2013-04-06 09:55:00,39.8,36.5,29.94,East,90,0.0,2.0,88,0.00,,,-99.99,214,WeatherLink 5.7,2013-04-06 15:55:00,
2013-04-06 10:00:00,40.3,36.7,29.92,East,90,0.0,1.0,87,0.00,,,-99.99,229,WeatherLink 5.7,2013-04-06 16:00:00,
2013-04-06 10:05:00,40.8,36.9,29.92,East,90,0.0,3.0,86,0.00,,,-99.99,185,WeatherLink 5.7,2013-04-06 16:05:00,
2013-04-06 10:10:00,41.0,37.1,29.92,East,90,1.0,4.0,86,0.00,,,-99.99,205,WeatherLink 5.7,2013-04-06 16:10:00,
2013-04-06 10:15:00,41.0,36.8,29.91,East,90,2.0,5.0,85,0.00,,,-99.99,153,WeatherLink 5.7,2013-04-06 16:15:00,
2013-04-06 10:20:00,42.0,37.5,29.91,ESE,112,1.0,4.0,84,0.00,,,-99.99,453,WeatherLink 5.7,2013-04-06 16:20:00,
2013-04-06 10:25:00,42.5,36.8,29.91,East,90,2.0,5.0,80,0.00,,,-99.99,277,WeatherLink 5.7,2013-04-06 16:25:00,
2013-04-06 10:30:00,42.3,36.6,29.90,East,90,2.0,5.0,80,0.00,,,-99.99,319,WeatherLink 5.7,2013-04-06 16:30:00,
2013-04-06 10:35:00,42.3,36.3,29.90,East,90,2.0,5.0,79,0.00,,,-99.99,482,WeatherLink 5.7,2013-04-06 16:35:00,
2013-04-06 10:40:00,43.2,36.8,29.90,East,90,1.0,4.0,78,0.00,,,-99.99,331,WeatherLink 5.7,2013-04-06 16:40:00,
2013-04-06 10:45:00,42.9,36.2,29.90,East,90,3.0,5.0,77,0.00,,,-99.99,310,WeatherLink 5.7,2013-04-06 16:45:00,
2013-04-06 10:50:00,42.8,36.1,29.90,East,90,1.0,4.0,77,0.00,,,-99.99,288,WeatherLink 5.7,2013-04-06 16:50:00,
2013-04-06 10:55:00,43.2,36.5,29.90,ESE,112,0.0,3.0,77,0.00,,,-99.99,268,WeatherLink 5.7,2013-04-06 16:55:00,
2013-04-06 11:00:00,43.5,36.4,29.90,ESE,112,1.0,4.0,76,0.00,,,-99.99,342,WeatherLink 5.7,2013-04-06 17:00:00,
2013-04-06 11:05:00,43.5,35.8,29.90,East,90,1.0,4.0,74,0.00,,,-99.99,223,WeatherLink 5.7,2013-04-06 17:05:00,
2013-04-06 11:10:00,43.8,35.7,29.90,East,90,0.0,2.0,73,0.00,,,-99.99,224,WeatherLink 5.7,2013-04-06 17:10:00,
2013-04-06 11:15:00,44.6,36.1,29.89,East,90,0.0,2.0,72,0.00,,,-99.99,411,WeatherLink 5.7,2013-04-06 17:15:00,
2013-04-06 11:20:00,44.8,35.6,29.89,East,90,1.0,5.0,70,0.00,,,-99.99,416,WeatherLink 5.7,2013-04-06 17:20:00,
2013-04-06 11:25:00,45.1,35.9,29.89,ESE,112,1.0,4.0,70,0.00,,,-99.99,402,WeatherLink 5.7,2013-04-06 17:25:00,
2013-04-06 11:30:00,45.7,36.5,29.89,ESE,112,0.0,4.0,70,0.00,,,-99.99,643,WeatherLink 5.7,2013-04-06 17:30:00,
2013-04-06 11:35:00,46.7,35.9,29.89,ESE,112,1.0,4.0,66,0.00,,,-99.99,700,WeatherLink 5.7,2013-04-06 17:35:00,
2013-04-06 11:40:00,47.0,35.8,29.89,ESE,112,0.0,5.0,65,0.00,,,-99.99,462,WeatherLink 5.7,2013-04-06 17:40:00,
2013-04-06 11:45:00,46.7,35.6,29.86,ESE,112,1.0,3.0,65,0.00,,,-99.99,353,WeatherLink 5.7,2013-04-06 17:45:00,
2013-04-06 11:50:00,47.3,36.1,29.86,East,90,0.0,1.0,65,0.00,,,-99.99,461,WeatherLink 5.7,2013-04-06 17:50:00,
2013-04-06 11:55:00,48.5,35.2,29.86,ESE,112,0.0,3.0,60,0.00,,,-99.99,680,WeatherLink 5.7,2013-04-06 17:55:00,
2013-04-06 12:00:00,48.2,32.8,29.85,East,90,1.0,4.0,55,0.00,,,-99.99,673,WeatherLink 5.7,2013-04-06 18:00:00,
2013-04-06 12:05:00,48.5,31.7,29.85,East,90,0.0,2.0,52,0.00,,,-99.99,799,WeatherLink 5.7,2013-04-06 18:05:00,
2013-04-06 12:10:00,49.6,31.7,29.85,North,-999,0.0,0.0,50,0.00,,,-99.99,783,WeatherLink 5.7,2013-04-06 18:10:00,
2013-04-06 12:15:00,49.9,31.0,29.86,East,90,0.0,1.0,48,0.00,,,-99.99,863,WeatherLink 5.7,2013-04-06 18:15:00,
2013-04-06 12:20:00,51.3,31.7,29.86,WSW,247,0.0,3.0,47,0.00,,,-99.99,837,WeatherLink 5.7,2013-04-06 18:20:00,
2013-04-06 12:25:00,52.6,31.8,29.86,NW,315,0.0,3.0,45,0.00,,,-99.99,886,WeatherLink 5.7,2013-04-06 18:25:00,
2013-04-06 12:30:00,51.6,32.0,29.84,NW,315,0.0,4.0,47,0.00,,,-99.99,659,WeatherLink 5.7,2013-04-06 18:30:00,
2013-04-06 12:35:00,52.2,32.6,29.84,NNE,22,0.0,1.0,47,0.00,,,-99.99,736,WeatherLink 5.7,2013-04-06 18:35:00,
2013-04-06 12:40:00,52.6,31.3,29.84,North,0,1.0,5.0,44,0.00,,,-99.99,889,WeatherLink 5.7,2013-04-06 18:40:00,
2013-04-06 12:45:00,52.8,32.6,29.83,NNW,337,2.0,8.0,46,0.00,,,-99.99,887,WeatherLink 5.7,2013-04-06 18:45:00,
2013-04-06 12:50:00,53.0,31.1,29.83,NNW,337,2.0,10.0,43,0.00,,,-99.99,908,WeatherLink 5.7,2013-04-06 18:50:00,
2013-04-06 12:55:00,53.8,30.6,29.83,NNW,337,0.0,3.0,41,0.00,,,-99.99,913,WeatherLink 5.7,2013-04-06 18:55:00,
2013-04-06 13:00:00,53.6,29.2,29.82,North,0,2.0,10.0,39,0.00,,,-99.99,899,WeatherLink 5.7,2013-04-06 19:00:00,
2013-04-06 13:05:00,53.8,30.0,29.82,North,0,2.0,11.0,40,0.00,,,-99.99,893,WeatherLink 5.7,2013-04-06 19:05:00,
2013-04-06 13:10:00,54.4,28.6,29.82,North,0,1.0,6.0,37,0.00,,,-99.99,946,WeatherLink 5.7,2013-04-06 19:10:00,
2013-04-06 13:15:00,54.5,28.1,29.80,North,0,0.0,3.0,36,0.00,,,-99.99,937,WeatherLink 5.7,2013-04-06 19:15:00,
2013-04-06 13:20:00,54.8,26.9,29.80,North,0,0.0,4.0,34,0.00,,,-99.99,946,WeatherLink 5.7,2013-04-06 19:20:00,
2013-04-06 13:25:00,55.4,27.5,29.80,NNW,337,2.0,12.0,34,0.00,,,-99.99,882,WeatherLink 5.7,2013-04-06 19:25:00,
2013-04-06 13:30:00,55.7,25.5,29.80,North,0,2.0,9.0,31,0.00,,,-99.99,941,WeatherLink 5.7,2013-04-06 19:30:00,
2013-04-06 13:35:00,56.0,27.3,29.80,North,0,2.0,12.0,33,0.00,,,-99.99,899,WeatherLink 5.7,2013-04-06 19:35:00,
2013-04-06 13:40:00,55.7,24.7,29.80,North,0,2.0,13.0,30,0.00,,,-99.99,813,WeatherLink 5.7,2013-04-06 19:40:00,
2013-04-06 13:45:00,55.7,25.5,29.78,North,0,2.0,15.0,31,0.00,,,-99.99,891,WeatherLink 5.7,2013-04-06 19:45:00,
2013-04-06 13:50:00,55.9,25.7,29.78,North,0,3.0,13.0,31,0.00,,,-99.99,892,WeatherLink 5.7,2013-04-06 19:50:00,
2013-04-06 13:55:00,56.2,25.9,29.78,North,0,4.0,11.0,31,0.00,,,-99.99,862,WeatherLink 5.7,2013-04-06 19:55:00,
2013-04-06 14:00:00,56.4,25.3,29.78,North,0,1.0,7.0,30,0.00,,,-99.99,911,WeatherLink 5.7,2013-04-06 20:00:00,
2013-04-06 14:05:00,56.9,26.5,29.78,North,0,2.0,9.0,31,0.00,,,-99.99,895,WeatherLink 5.7,2013-04-06 20:05:00,
2013-04-06 14:10:00,56.9,25.7,29.78,North,0,2.0,11.0,30,0.00,,,-99.99,928,WeatherLink 5.7,2013-04-06 20:10:00,
2013-04-06 14:15:00,57.3,26.1,29.78,North,0,1.0,7.0,30,0.00,,,-99.99,1014,WeatherLink 5.7,2013-04-06 20:15:00,
2013-04-06 14:20:00,57.5,25.5,29.78,North,0,1.0,7.0,29,0.00,,,-99.99,1023,WeatherLink 5.7,2013-04-06 20:20:00,
2013-04-06 14:25:00,58.0,25.9,29.78,NNW,337,1.0,5.0,29,0.00,,,-99.99,1013,WeatherLink 5.7,2013-04-06 20:25:00,
2013-04-06 14:30:00,58.4,27.1,29.76,NNW,337,5.0,14.0,30,0.00,,,-99.99,839,WeatherLink 5.7,2013-04-06 20:30:00,
2013-04-06 14:35:00,58.1,26.8,29.76,North,0,2.0,10.0,30,0.00,,,-99.99,703,WeatherLink 5.7,2013-04-06 20:35:00,
2013-04-06 14:40:00,58.0,25.9,29.76,North,0,2.0,7.0,29,0.00,,,-99.99,749,WeatherLink 5.7,2013-04-06 20:40:00,
2013-04-06 14:45:00,57.8,24.9,29.75,North,0,0.0,3.0,28,0.00,,,-99.99,767,WeatherLink 5.7,2013-04-06 20:45:00,
2013-04-06 14:50:00,58.0,25.9,29.75,North,0,1.0,6.0,29,0.00,,,-99.99,767,WeatherLink 5.7,2013-04-06 20:50:00,
2013-04-06 14:55:00,58.6,26.4,29.75,North,0,1.0,6.0,29,0.00,,,-99.99,913,WeatherLink 5.7,2013-04-06 20:55:00,
2013-04-06 15:00:00,58.6,25.6,29.75,North,0,2.0,9.0,28,0.00,,,-99.99,965,WeatherLink 5.7,2013-04-06 21:00:00,
2013-04-06 15:05:00,58.6,27.2,29.75,NNW,337,3.0,11.0,30,0.00,,,-99.99,970,WeatherLink 5.7,2013-04-06 21:05:00,
2013-04-06 15:10:00,58.7,26.5,29.75,North,0,2.0,7.0,29,0.00,,,-99.99,952,WeatherLink 5.7,2013-04-06 21:10:00,
2013-04-06 15:15:00,59.2,26.1,29.73,North,0,2.0,7.0,28,0.00,,,-99.99,928,WeatherLink 5.7,2013-04-06 21:15:00,
2013-04-06 15:20:00,60.1,26.9,29.73,NNW,337,2.0,10.0,28,0.00,,,-99.99,935,WeatherLink 5.7,2013-04-06 21:20:00,
2013-04-06 15:25:00,60.6,28.1,29.73,NNW,337,2.0,11.0,29,0.00,,,-99.99,917,WeatherLink 5.7,2013-04-06 21:25:00,
2013-04-06 15:30:00,60.2,26.1,29.71,North,0,1.0,12.0,27,0.00,,,-99.99,847,WeatherLink 5.7,2013-04-06 21:30:00,
2013-04-06 15:35:00,59.9,28.4,29.71,North,0,4.0,12.0,30,0.00,,,-99.99,953,WeatherLink 5.7,2013-04-06 21:35:00,
2013-04-06 15:40:00,60.1,26.0,29.71,NNW,337,2.0,7.0,27,0.00,,,-99.99,976,WeatherLink 5.7,2013-04-06 21:40:00,
2013-04-06 15:45:00,60.6,24.5,29.70,North,0,2.0,9.0,25,0.00,,,-99.99,938,WeatherLink 5.7,2013-04-06 21:45:00,
2013-04-06 15:50:00,59.9,25.8,29.70,NNW,337,2.0,10.0,27,0.00,,,-99.99,956,WeatherLink 5.7,2013-04-06 21:50:00,
2013-04-06 15:55:00,60.6,25.5,29.70,NNW,337,2.0,9.0,26,0.00,,,-99.99,963,WeatherLink 5.7,2013-04-06 21:55:00,
2013-04-06 16:00:00,60.4,23.4,29.71,NNW,337,4.0,13.0,24,0.00,,,-99.99,936,WeatherLink 5.7,2013-04-06 22:00:00,
2013-04-06 16:05:00,60.1,23.1,29.71,NW,315,2.0,6.0,24,0.00,,,-99.99,474,WeatherLink 5.7,2013-04-06 22:05:00,
2013-04-06 16:10:00,59.8,22.9,29.71,WSW,247,2.0,11.0,24,0.00,,,-99.99,589,WeatherLink 5.7,2013-04-06 22:10:00,
2013-04-06 16:15:00,59.9,22.0,29.72,West,270,1.0,11.0,23,0.00,,,-99.99,538,WeatherLink 5.7,2013-04-06 22:15:00,
2013-04-06 16:20:00,59.8,23.9,29.72,South,180,1.0,4.0,25,0.00,,,-99.99,423,WeatherLink 5.7,2013-04-06 22:20:00,
2013-04-06 16:25:00,60.9,23.8,29.72,SSW,202,2.0,13.0,24,0.00,,,-99.99,818,WeatherLink 5.7,2013-04-06 22:25:00,
2013-04-06 16:30:00,61.3,24.2,29.71,WNW,292,3.0,16.0,24,0.00,,,-99.99,798,WeatherLink 5.7,2013-04-06 22:30:00,
2013-04-06 16:35:00,61.2,24.1,29.71,NNW,337,2.0,8.0,24,0.00,,,-99.99,401,WeatherLink 5.7,2013-04-06 22:35:00,
2013-04-06 16:40:00,60.2,23.2,29.71,NNW,337,1.0,7.0,24,0.00,,,-99.99,271,WeatherLink 5.7,2013-04-06 22:40:00,
2013-04-06 16:45:00,60.4,24.4,29.71,NNW,337,1.0,10.0,25,0.00,,,-99.99,715,WeatherLink 5.7,2013-04-06 22:45:00,
2013-04-06 16:50:00,60.4,24.4,29.71,North,0,1.0,14.0,25,0.00,,,-99.99,398,WeatherLink 5.7,2013-04-06 22:50:00,
2013-04-06 16:55:00,60.6,23.6,29.71,NNW,337,1.0,8.0,24,0.00,,,-99.99,595,WeatherLink 5.7,2013-04-06 22:55:00,
2013-04-06 17:00:00,61.3,24.2,29.70,NNW,337,1.0,3.0,24,0.00,,,-99.99,594,WeatherLink 5.7,2013-04-06 23:00:00,
2013-04-06 17:05:00,60.4,24.4,29.70,NNW,337,5.0,13.0,25,0.00,,,-99.99,405,WeatherLink 5.7,2013-04-06 23:05:00,
2013-04-06 17:10:00,59.8,24.8,29.70,North,0,2.0,11.0,26,0.00,,,-99.99,347,WeatherLink 5.7,2013-04-06 23:10:00,
2013-04-06 17:15:00,59.9,24.9,29.70,WNW,292,1.0,5.0,26,0.00,,,-99.99,340,WeatherLink 5.7,2013-04-06 23:15:00,
2013-04-06 17:20:00,60.1,24.1,29.70,North,0,1.0,7.0,25,0.00,,,-99.99,437,WeatherLink 5.7,2013-04-06 23:20:00,
2013-04-06 17:25:00,59.8,24.8,29.70,North,0,2.0,10.0,26,0.00,,,-99.99,355,WeatherLink 5.7,2013-04-06 23:25:00,
2013-04-06 17:30:00,59.9,24.9,29.70,NW,315,0.0,2.0,26,0.00,,,-99.99,340,WeatherLink 5.7,2013-04-06 23:30:00,
2013-04-06 17:35:00,59.6,23.7,29.70,NNW,337,2.0,7.0,25,0.00,,,-99.99,295,WeatherLink 5.7,2013-04-06 23:35:00,
2013-04-06 17:40:00,59.3,23.4,29.70,NNW,337,1.0,6.0,25,0.00,,,-99.99,306,WeatherLink 5.7,2013-04-06 23:40:00,
2013-04-06 17:50:00,59.8,23.9,29.70,NW,315,0.0,4.0,25,0.00,,,-99.99,317,WeatherLink 5.7,2013-04-06 23:50:00,
2013-04-06 17:55:00,58.3,24.4,29.72,NNW,337,1.0,5.0,27,0.00,,,-99.99,98,WeatherLink 5.7,2013-04-06 23:55:00,
2013-04-06 18:00:00,58.1,23.3,29.72,NNW,337,0.0,3.0,26,0.00,,,-99.99,61,WeatherLink 5.7,2013-04-07 00:00:00,
2013-04-06 18:10:00,58.0,23.3,29.72,North,-999,0.0,0.0,26,0.00,,,-99.99,37,WeatherLink 5.7,2013-04-07 00:10:00,
2013-04-06 18:15:00,58.0,24.2,29.72,NNW,337,0.0,1.0,27,0.00,,,-99.99,35,WeatherLink 5.7,2013-04-07 00:15:00,
2013-04-06 18:20:00,57.7,23.0,29.73,ESE,112,1.0,6.0,26,0.00,,,-99.99,33,WeatherLink 5.7,2013-04-07 00:20:00,
2013-04-06 18:25:00,57.0,21.5,29.73,SE,135,3.0,11.0,25,0.00,,,-99.99,33,WeatherLink 5.7,2013-04-07 00:25:00,
2013-04-06 18:35:00,57.0,23.3,29.74,SSE,157,0.0,2.0,27,0.00,,,-99.99,34,WeatherLink 5.7,2013-04-07 00:35:00,
2013-04-06 18:40:00,56.7,23.0,29.74,WNW,292,4.0,15.0,27,0.00,,,-99.99,33,WeatherLink 5.7,2013-04-07 00:40:00,
2013-04-06 18:45:00,56.6,23.0,29.74,NNW,337,1.0,10.0,27,0.00,,,-99.99,27,WeatherLink 5.7,2013-04-07 00:45:00,
2013-04-06 18:50:00,56.3,21.8,29.74,NNW,337,2.0,7.0,26,0.00,,,-99.99,32,WeatherLink 5.7,2013-04-07 00:50:00,
2013-04-06 19:00:00,56.2,22.6,29.74,West,270,0.0,2.0,27,0.00,,,-99.99,15,WeatherLink 5.7,2013-04-07 01:00:00,
2013-04-06 19:10:00,55.9,24.9,29.74,NW,315,0.0,3.0,30,0.00,,,-99.99,15,WeatherLink 5.7,2013-04-07 01:10:00,
2013-04-06 19:15:00,55.7,24.7,29.74,NW,315,0.0,3.0,30,0.00,,,-99.99,19,WeatherLink 5.7,2013-04-07 01:15:00,
2013-04-06 19:20:00,55.6,25.4,29.72,NNW,337,0.0,1.0,31,0.00,,,-99.99,19,WeatherLink 5.7,2013-04-07 01:20:00,
2013-04-06 19:25:00,55.4,25.2,29.72,NNW,337,0.0,1.0,31,0.00,,,-99.99,13,WeatherLink 5.7,2013-04-07 01:25:00,
2013-04-06 19:35:00,55.1,25.0,29.74,North,-999,0.0,0.0,31,0.00,,,-99.99,5,WeatherLink 5.7,2013-04-07 01:35:00,
2013-04-06 19:40:00,55.1,25.0,29.74,North,-999,0.0,0.0,31,0.00,,,-99.99,0,WeatherLink 5.7,2013-04-07 01:40:00,
2013-04-06 19:45:00,55.0,24.9,29.74,North,-999,0.0,0.0,31,0.00,,,-99.99,0,WeatherLink 5.7,2013-04-07 01:45:00,
2013-04-06 19:55:00,54.4,25.1,29.75,SSW,202,0.0,4.0,32,0.00,,,-99.99,0,WeatherLink 5.7,2013-04-07 01:55:00,
2013-04-06 20:00:00,53.9,24.7,29.75,SW,225,0.0,2.0,32,0.00,,,-99.99,0,WeatherLink 5.7,2013-04-07 02:00:00,
2013-04-06 20:10:00,53.8,23.1,29.77,WNW,292,2.0,11.0,30,0.00,,,-99.99,0,WeatherLink 5.7,2013-04-07 02:10:00,
2013-04-06 20:20:00,54.2,24.2,29.75,West,270,2.0,7.0,31,0.00,,,-99.99,0,WeatherLink 5.7,2013-04-07 02:20:00,
2013-04-06 20:25:00,53.9,24.7,29.75,NNW,337,2.0,6.0,32,0.00,,,-99.99,0,WeatherLink 5.7,2013-04-07 02:25:00,
2013-04-06 20:35:00,53.9,23.1,29.74,NW,315,2.0,7.0,30,0.00,,,-99.99,0,WeatherLink 5.7,2013-04-07 02:35:00,
2013-04-06 20:45:00,54.1,24.1,29.74,WSW,247,1.0,5.0,31,0.00,,,-99.99,0,WeatherLink 5.7,2013-04-07 02:45:00,
2013-04-06 20:50:00,54.1,24.1,29.76,WNW,292,4.0,13.0,31,0.00,,,-99.99,0,WeatherLink 5.7,2013-04-07 02:50:00,
2013-04-06 21:00:00,53.8,26.8,29.76,West,270,2.0,9.0,35,0.00,,,-99.99,0,WeatherLink 5.7,2013-04-07 03:00:00,
2013-04-06 21:10:00,52.8,27.9,29.78,WNW,292,5.0,15.0,38,0.00,,,-99.99,0,WeatherLink 5.7,2013-04-07 03:10:00,
2013-04-06 21:15:00,51.3,31.7,29.78,West,270,5.0,18.0,47,0.00,,,-99.99,0,WeatherLink 5.7,2013-04-07 03:15:00,
2013-04-06 21:25:00,48.2,33.7,29.79,NW,315,3.0,10.0,57,0.00,,,-99.99,0,WeatherLink 5.7,2013-04-07 03:25:00,
2013-04-06 21:30:00,47.3,34.9,29.79,West,270,1.0,7.0,62,0.01,,,-99.99,0,WeatherLink 5.7,2013-04-07 03:30:00,
2013-04-06 21:40:00,45.8,35.5,29.84,WNW,292,0.0,1.0,67,0.02,,,-99.99,0,WeatherLink 5.7,2013-04-07 03:40:00,
2013-04-06 21:45:00,45.4,36.2,29.84,West,270,0.0,2.0,70,0.03,,,-99.99,0,WeatherLink 5.7,2013-04-07 03:45:00,
2013-04-06 21:50:00,44.8,36.3,29.85,SSE,157,0.0,3.0,72,0.04,,,-99.99,0,WeatherLink 5.7,2013-04-07 03:50:00,
2013-04-06 22:00:00,43.6,36.9,29.85,North,-999,0.0,0.0,77,0.05,,,-99.99,0,WeatherLink 5.7,2013-04-07 04:00:00,
2013-04-06 22:10:00,43.2,36.8,29.85,NW,315,4.0,8.0,78,0.06,,,-99.99,0,WeatherLink 5.7,2013-04-07 04:10:00,
2013-04-06 22:15:00,42.5,36.4,29.85,NNW,337,4.0,12.0,79,0.07,,,-99.99,0,WeatherLink 5.7,2013-04-07 04:15:00,
2013-04-06 22:25:00,41.8,36.4,29.84,NNW,337,0.0,1.0,81,0.08,,,-99.99,0,WeatherLink 5.7,2013-04-07 04:25:00,
2013-04-06 22:30:00,41.8,36.7,29.84,WSW,247,0.0,4.0,82,0.07,,,-99.99,0,WeatherLink 5.7,2013-04-07 04:30:00,
2013-04-06 22:40:00,41.8,36.7,29.83,North,0,0.0,3.0,82,0.06,,,-99.99,0,WeatherLink 5.7,2013-04-07 04:40:00,
2013-04-06 22:45:00,41.6,36.5,29.83,North,-999,0.0,0.0,82,0.05,,,-99.99,0,WeatherLink 5.7,2013-04-07 04:45:00,
2013-04-06 22:55:00,41.8,36.7,29.83,North,-999,0.0,0.0,82,0.04,,,-99.99,0,WeatherLink 5.7,2013-04-07 04:55:00,
2013-04-06 23:00:00,41.6,36.5,29.83,WNW,292,0.0,2.0,82,0.03,,,-99.99,0,WeatherLink 5.7,2013-04-07 05:00:00,
2013-04-06 23:10:00,41.6,36.5,29.82,North,-999,0.0,0.0,82,0.02,,,-99.99,0,WeatherLink 5.7,2013-04-07 05:10:00,
2013-04-06 23:15:00,41.6,36.8,29.82,WNW,292,0.0,2.0,83,0.01,,,-99.99,0,WeatherLink 5.7,2013-04-07 05:15:00,
2013-04-06 23:25:00,41.5,36.7,29.78,North,-999,0.0,0.0,83,0.00,,,-99.99,0,WeatherLink 5.7,2013-04-07 05:25:00,
2013-04-06 23:30:00,41.3,36.5,29.78,WNW,292,0.0,2.0,83,0.00,,,-99.99,0,WeatherLink 5.7,2013-04-07 05:30:00,
2013-04-06 23:40:00,40.8,36.0,29.80,North,-999,0.0,0.0,83,0.00,,,-99.99,0,WeatherLink 5.7,2013-04-07 05:40:00,
2013-04-06 23:45:00,40.6,36.1,29.80,North,-999,0.0,0.0,84,0.00,,,-99.99,0,WeatherLink 5.7,2013-04-07 05:45:00,
2013-04-06 23:50:00,40.5,36.0,29.80,North,-999,0.0,0.0,84,0.00,,,-99.99,0,WeatherLink 5.7,2013-04-07 05:50:00,